{"data":{"norad_id":40267,"intl_designator":"2014-060A","name":"HIMAWARI-8","alt_names":[],"object_type":"PAYLOAD","status":"ACTIVE","operator":null,"country":"JPN","launch_date":"2014-10-07","launch_site_code":"TANSC","launch_vehicle":null,"mission":null,"orbit_class":"UNKNOWN","rcs_meters":35.8016,"size_class":null,"mass_kg":null,"dimensions":null,"purposes":["comms","earth_obs"],"wikipedia_slug":null,"has_3d_model":false,"image_url":null,"decayed_at":null,"tle_current":{"epoch":"2026-09-19T18:56:47.531328Z","epoch_age_seconds":75819,"freshness":"FRESH","line1":"1 40267U 14060A   26262.78943902 -.00000279  00000+0  00000+0 0  9997","line2":"2 40267   0.0048 178.1158 0000899 357.8659 247.5687  1.00274499 43702","mean_motion":1.00274499,"eccentricity":8.99e-5,"inclination_deg":0.0048,"raan_deg":178.1158,"arg_perigee_deg":357.8659,"mean_anomaly_deg":247.5687,"bstar":0,"rev_number":4370,"period_min":1436.0580350544,"perigee_km":35782.043604624,"apogee_km":35789.624686636,"semimajor_km":42163.97114563,"source":"CELESTRAK","updated_at":"2026-09-20T09:00:35.212367Z"}}}